FW3933 Weather Reports


Display with metric or nautical units.
time (UTC)temp
F
wind
direction
speed
MPH
gust
MPH
rain 1hr
in
rain 24hr
in
rain mn
in
humidity
%
barometer
mb
20260901115525 55 174 1.0 12.0 0.00 0.00 0.00 83 1017.0
20260901115029 55 243 3.0 12.0 0.00 0.00 0.00 83 1016.9
20260901114529 54 146 2.0 13.0 0.00 0.00 0.00 83 1016.8
20260901114025 54 232 3.0 13.0 0.00 0.00 0.00 83 1016.9
20260901113527 54 189 6.0 17.0 0.00 0.00 0.00 83 1017.1
20260901113023 54 187 7.0 17.0 0.00 0.00 0.00 83 1017.1
20260901112519 54 180 6.0 17.0 0.00 0.00 0.00 83 1017.2
20260901112019 54 203 5.0 14.0 0.00 0.00 0.00 84 1017.3
20260901111521 54 218 6.0 16.0 0.00 0.00 0.00 84 1017.4
20260901111018 54 195 5.0 14.0 0.00 0.00 0.00 83 1017.4
20260901110519 54 183 7.0 16.0 0.00 0.00 0.00 83 1017.4
20260901110016 54 172 6.0 16.0 0.00 0.00 0.00 83 1017.5
20260901105516 54 211 6.0 16.0 0.00 0.00 0.00 83 1017.5
20260901105014 55 193 6.0 16.0 0.00 0.00 0.00 83 1017.4
20260901104514 55 235 4.0 12.0 0.00 0.00 0.00 84 1017.4
20260901104018 55 215 4.0 14.0 0.00 0.00 0.00 83 1017.3
20260901103512 55 244 5.0 18.0 0.00 0.00 0.00 82 1017.2
20260901103013 55 253 6.0 18.0 0.00 0.00 0.00 82 1017.2
20260901102515 55 295 3.0 10.0 0.00 0.00 0.00 82 1017.2
20260901102014 55 296 3.0 8.0 0.00 0.00 0.00 83 1017.1
20260901101512 54 184 1.0 10.0 0.00 0.00 0.00 83 1017.1
20260901101011 54 192 4.0 12.0 0.00 0.00 0.00 84 1017.1
20260901100514 54 216 5.0 12.0 0.00 0.00 0.00 82 1017.0
20260901100009 54 192 6.0 15.0 0.00 0.00 0.00 82 1016.9
20260901095508 54 202 6.0 14.0 0.00 0.00 0.00 82 1016.9
20260901095013 54 187 6.0 15.0 0.00 0.00 0.00 82 1016.9
20260901094507 54 222 3.0 14.0 0.00 0.00 0.00 83 1016.8
20260901094005 54 226 5.0 12.0 0.00 0.00 0.00 82 1016.7
20260901093508 54 191 3.0 13.0 0.00 0.00 0.00 82 1016.8
20260901093016 54 213 3.0 13.0 0.00 0.00 0.00 82 1016.8
20260901092506 54 207 6.0 13.0 0.00 0.00 0.00 81 1016.8
20260901092005 54 240 5.0 14.0 0.00 0.00 0.00 82 1016.7
20260901091504 54 205 5.0 14.0 0.00 0.00 0.00 81 1016.7
20260901091005 54 190 4.0 12.0 0.00 0.00 0.00 81 1016.7
20260901090502 54 217 3.0 12.0 0.00 0.00 0.00 81 1016.6
20260901090006 55 192 1.0 10.0 0.00 0.00 0.00 82 1016.6
20260901085502 55 182 2.0 10.0 0.00 0.00 0.00 81 1016.7
20260901085100 55 257 2.0 10.0 0.00 0.00 0.00 81 1016.8
20260901084605 55 222 1.0 11.0 0.00 0.00 0.00 83 1016.8
20260901084100 55 182 3.0 17.0 0.00 0.00 0.00 83 1016.8
20260901083559 55 219 3.0 11.0 0.00 0.00 0.00 83 1016.8
20260901082602 55 228 4.0 13.0 0.00 0.00 0.00 82 1016.7
20260901082058 55 175 3.0 14.0 0.00 0.00 0.00 82 1016.6
20260901081610 55 196 2.0 11.0 0.00 0.00 0.00 83 1016.7
20260901081056 55 215 4.0 14.0 0.00 0.00 0.00 82 1016.7
20260901080555 55 234 3.0 10.0 0.00 0.00 0.00 83 1016.7
20260901080057 55 207 4.0 10.0 0.00 0.00 0.00 83 1016.5
20260901075554 55 248 2.0 13.0 0.00 0.00 0.00 82 1016.4
20260901075053 55 217 2.0 13.0 0.00 0.00 0.00 82 1016.4
20260901074554 55 268 3.0 15.0 0.00 0.00 0.00 81 1016.4
20260901074055 55 260 2.0 14.0 0.00 0.00 0.00 81 1016.4
20260901073553 55 240 1.0 14.0 0.00 0.00 0.00 82 1016.5
20260901072552 55 201 4.0 17.0 0.00 0.00 0.00 80 1016.3
20260901072054 55 214 5.0 17.0 0.00 0.00 0.00 81 1016.4
20260901071553 55 233 3.0 11.0 0.00 0.00 0.00 80 1016.4
20260901071052 55 217 3.0 11.0 0.00 0.00 0.00 79 1016.3
20260901070553 55 177 3.0 13.0 0.00 0.00 0.00 79 1016.3
20260901070058 55 224 6.0 13.0 0.00 0.00 0.00 78 1016.3
20260901065551 55 224 2.0 10.0 0.00 0.00 0.00 78 1016.3
20260901065046 56 267 1.0 9.0 0.00 0.00 0.00 79 1016.3
20260901064546 56 281 2.0 13.0 0.00 0.00 0.00 78 1016.4
20260901064046 56 215 4.0 22.0 0.00 0.00 0.00 78 1016.3
20260901063547 56 257 3.0 22.0 0.00 0.00 0.00 79 1016.4
20260901063012 56 338 3.0 11.0 0.00 0.00 0.00 78 1016.4
20260901062506 56 203 2.0 14.0 0.00 0.00 0.00 78 1016.4
20260901062007 56 247 3.0 14.0 0.00 0.00 0.00 77 1016.3
20260901061506 56 208 2.0 10.0 0.00 0.00 0.00 78 1016.4
20260901061004 56 192 3.0 10.0 0.00 0.00 0.00 77 1016.3
20260901060504 56 211 0.0 10.0 0.00 0.00 0.00 77 1016.3
20260901060002 57 173 2.0 15.0 0.00 0.00 0.00 76 1016.3
20260901055502 57 233 4.0 15.0 0.00 0.00 0.00 75 1016.4
20260901055001 57 230 3.0 14.0 0.00 0.00 0.00 75 1016.4
20260901054601 57 204 1.0 13.0 0.00 0.00 0.00 74 1016.5
20260901054100 58 176 3.0 15.0 0.00 0.00 0.00 74 1016.3
20260901053603 58 190 1.0 15.0 0.00 0.00 0.00 74 1016.4
20260901052537 58 186 2.0 13.0 0.00 0.00 0.00 72 1016.5
20260901052035 59 233 5.0 13.0 0.00 0.00 0.00 72 1016.6
20260901051534 59 243 4.0 11.0 0.00 0.00 0.00 71 1016.5
20260901051036 60 185 1.0 14.0 0.00 0.00 0.00 71 1016.5
20260901050532 60 244 4.0 14.0 0.00 0.00 0.00 70 1016.4
20260901050031 60 182 3.0 11.0 0.00 0.00 0.00 69 1016.3
20260901045530 60 238 2.0 11.0 0.00 0.00 0.00 69 1016.3
20260901045031 60 182 2.0 11.0 0.00 0.00 0.00 69 1016.3
20260901044536 61 198 4.0 10.0 0.00 0.00 0.00 68 1016.2
20260901044029 61 217 4.0 10.0 0.00 0.00 0.00 69 1016.1
20260901043529 61 211 2.0 13.0 0.00 0.00 0.00 69 1016.0
20260901042532 61 217 2.0 13.0 0.00 0.00 0.00 69 1015.8
20260901042034 61 224 3.0 14.0 0.00 0.00 0.00 67 1015.7
20260901041529 61 232 2.0 14.0 0.00 0.00 0.00 68 1015.6
20260901041028 61 215 2.0 13.0 0.00 0.00 0.00 69 1015.6
20260901040529 62 189 4.0 15.0 0.00 0.00 0.00 67 1015.6
20260901040028 62 199 6.0 19.0 0.00 0.00 0.00 66 1015.6
20260901035529 62 192 8.0 19.0 0.00 0.00 0.00 66 1015.4
20260901035029 62 205 6.0 16.0 0.00 0.00 0.00 66 1015.4
20260901034531 63 224 7.0 18.0 0.00 0.00 0.00 65 1015.2
20260901034029 63 165 6.0 18.0 0.00 0.00 0.00 66 1015.1
20260901033527 63 213 9.0 18.0 0.00 0.00 0.00 65 1015.0
20260901032531 64 244 6.0 17.0 0.00 0.00 0.00 65 1014.8
20260901032029 64 193 8.0 16.0 0.00 0.00 0.00 64 1014.8
20260901031532 64 218 6.0 16.0 0.00 0.00 0.00 65 1014.8
20260901031028 65 176 8.0 16.0 0.00 0.00 0.00 62 1014.7
20260901030528 65 155 7.0 15.0 0.00 0.00 0.00 63 1014.6
20260901030028 66 238 4.0 15.0 0.00 0.00 0.00 63 1014.5
20260901025528 66 269 4.0 15.0 0.00 0.00 0.00 62 1014.5
20260901025028 67 257 2.0 15.0 0.00 0.00 0.00 62 1014.4
20260901024528 67 146 3.0 15.0 0.00 0.00 0.00 62 1014.3
20260901024029 67 172 4.0 10.0 0.00 0.00 0.00 60 1014.3
20260901023527 68 203 3.0 13.0 0.00 0.00 0.00 61 1014.3
20260901022526 69 238 5.0 17.0 0.00 0.00 0.00 59 1014.3
20260901022026 69 195 2.0 10.0 0.00 0.00 0.00 58 1014.3
20260901021534 70 171 2.0 11.0 0.00 0.00 0.00 58 1014.2
20260901021026 70 267 2.0 11.0 0.00 0.00 0.00 58 1014.1
20260901020530 70 209 3.0 10.0 0.00 0.00 0.00 58 1014.1
20260901020049 71 274 3.0 16.0 0.00 0.00 0.00 57 1014.1
20260901015531 71 263 4.0 16.0 0.00 0.00 0.00 57 1013.9
20260901015029 71 224 1.0 17.0 0.00 0.00 0.00 57 1013.9
20260901014526 71 182 5.0 17.0 0.00 0.00 0.00 55 1013.9
20260901014025 72 205 4.0 18.0 0.00 0.00 0.00 55 1013.9
20260901013525 72 228 1.0 18.0 0.00 0.00 0.00 55 1013.9
20260901012524 73 176 1.0 11.0 0.00 0.00 0.00 54 1013.9
20260901012027 73 294 4.0 11.0 0.00 0.00 0.00 53 1013.9
20260901011535 73 182 2.0 11.0 0.00 0.00 0.00 53 1013.8
20260901011024 73 211 2.0 11.0 0.00 0.00 0.00 53 1013.9
20260901010526 74 126 1.0 9.0 0.00 0.00 0.00 54 1013.9
20260901010024 74 261 1.0 9.0 0.00 0.00 0.00 51 1013.9
20260901005524 75 225 2.0 11.0 0.00 0.00 0.00 51 1013.9
20260901005026 75 182 0.0 12.0 0.00 0.00 0.00 51 1013.9
20260901004524 75 211 5.0 13.0 0.00 0.00 0.00 51 1013.9
20260901004024 75 178 3.0 13.0 0.00 0.00 0.00 50 1013.9
20260901003526 75 186 4.0 13.0 0.00 0.00 0.00 49 1013.9
20260901002525 76 224 3.0 15.0 0.00 0.00 0.00 49 1013.9
20260901002025 76 173 5.0 15.0 0.00 0.00 0.00 47 1013.8
20260901001527 76 185 4.0 13.0 0.00 0.00 0.00 46 1013.8
20260901001024 76 168 2.0 12.0 0.00 0.00 0.00 47 1013.8
20260901000524 76 251 4.0 14.0 0.00 0.00 0.00 46 1013.8
20260901000024 77 185 5.0 14.0 0.00 0.00 0.00 45 1013.8
20260831235524 77 203 4.0 15.0 0.00 0.00 0.00 45 1013.9
20260831235024 78 180 5.0 15.0 0.00 0.00 0.00 45 1013.9
20260831234524 78 199 2.0 11.0 0.00 0.00 0.00 44 1013.9
20260831234024 78 196 4.0 10.0 0.00 0.00 0.00 45 1013.9
20260831233523 79 197 3.0 11.0 0.00 0.00 0.00 42 1013.9
20260831232524 79 194 2.0 11.0 0.00 0.00 0.00 41 1014.0
20260831232024 79 177 3.0 11.0 0.00 0.00 0.00 40 1013.9
20260831231523 80 224 2.0 9.0 0.00 0.00 0.00 39 1014.0
20260831231022 80 272 3.0 9.0 0.00 0.00 0.00 40 1013.9
20260831230521 80 248 1.0 9.0 0.00 0.00 0.00 40 1014.0
20260831230020 80 203 2.0 11.0 0.00 0.00 0.00 39 1014.0
20260831225522 80 243 2.0 13.0 0.00 0.00 0.00 39 1014.0
20260831225020 80 181 3.0 13.0 0.00 0.00 0.00 38 1014.1
20260831224520 81 222 2.0 10.0 0.00 0.00 0.00 39 1014.1
20260831224019 81 166 1.0 11.0 0.00 0.00 0.00 39 1014.1
20260831223519 81 181 2.0 11.0 0.00 0.00 0.00 37 1014.2
20260831222519 81 193 1.0 11.0 0.00 0.00 0.00 37 1014.3
20260831222018 81 192 1.0 10.0 0.00 0.00 0.00 38 1014.3
20260831221518 81 237 2.0 9.0 0.00 0.00 0.00 38 1014.3
20260831221018 81 232 2.0 14.0 0.00 0.00 0.00 37 1014.4
20260831220517 82 186 3.0 14.0 0.00 0.00 0.00 35 1014.4
20260831220022 82 189 1.0 9.0 0.00 0.00 0.00 35 1014.4
20260831215517 82 215 1.0 10.0 0.00 0.00 0.00 34 1014.5
20260831215017 82 222 1.0 10.0 0.00 0.00 0.00 34 1014.5
20260831214518 83 215 2.0 10.0 0.00 0.00 0.00 34 1014.6
20260831214019 84 190 1.0 10.0 0.00 0.00 0.00 34 1014.6
20260831213516 84 216 0.0 8.0 0.00 0.00 0.00 35 1014.7
20260831212521 84 251 0.0 5.0 0.00 0.00 0.00 36 1014.6
20260831212020 83 224 0.0 5.0 0.00 0.00 0.00 35 1014.6
20260831211517 83 274 0.0 5.0 0.00 0.00 0.00 34 1014.6
20260831211017 83 197 0.0 4.0 0.00 0.00 0.00 36 1014.6
20260831210517 83 224 0.0 8.0 0.00 0.00 0.00 36 1014.7
20260831210020 84 241 0.0 8.0 0.00 0.00 0.00 36 1014.7
20260831205516 84 257 0.0 4.0 0.00 0.00 0.00 35 1014.7
20260831205016 85 244 0.0 2.0 0.00 0.00 0.00 33 1014.7
20260831204516 85 226 0.0 0.0 0.00 0.00 0.00 29 1014.7
20260831204018 85 226 0.0 0.0 0.00 0.00 0.00 30 1014.6
20260831203515 85 224 0.0 0.0 0.00 0.00 0.00 32 1014.7
20260831202513 85 224 0.0 0.0 0.00 0.00 0.00 37 1014.8
20260831202013 85 224 0.0 0.0 0.00 0.00 0.00 36 1014.8
20260831201513 85 224 0.0 0.0 0.00 0.00 0.00 37 1014.9
20260831201015 84 224 0.0 0.0 0.00 0.00 0.00 35 1014.8
20260831200516 84 224 0.0 0.0 0.00 0.00 0.00 37 1014.8
20260831200020 83 224 0.0 1.0 0.00 0.00 0.00 39 1014.8
20260831195509 83 224 0.0 1.0 0.00 0.00 0.00 39 1014.9
20260831195007 83 224 0.0 1.0 0.00 0.00 0.00 39 1014.9
20260831194510 82 224 0.0 3.0 0.00 0.00 0.00 39 1014.8
20260831194005 82 240 0.0 3.0 0.00 0.00 0.00 37 1014.9
20260831193507 80 246 0.0 3.0 0.00 0.00 0.00 40 1015.0
20260831192505 80 136 0.0 1.0 0.00 0.00 0.00 43 1015.2
20260831192010 80 135 0.0 3.0 0.00 0.00 0.00 43 1015.2
20260831191505 81 107 0.0 4.0 0.00 0.00 0.00 43 1015.3
20260831191004 80 99 0.0 5.0 0.00 0.00 0.00 37 1015.3
20260831190503 80 90 0.0 5.0 0.00 0.00 0.00 38 1015.3
20260831190005 80 99 0.0 4.0 0.00 0.00 0.00 38 1015.3
20260831185502 79 103 0.0 5.0 0.00 0.00 0.00 40 1015.4
20260831185101 79 90 1.0 5.0 0.00 0.00 0.00 41 1015.5
20260831184628 79 102 0.0 4.0 0.00 0.00 0.00 40 1015.5
20260831184102 78 90 0.0 2.0 0.00 0.00 0.00 41 1015.5
20260831183601 78 91 0.0 3.0 0.00 0.00 0.00 41 1015.5
20260831182558 77 77 0.0 4.0 0.00 0.00 0.00 39 1015.5
20260831182055 77 70 0.0 3.0 0.00 0.00 0.00 40 1015.5
20260831181555 75 57 0.0 3.0 0.00 0.00 0.00 44 1015.6
20260831181053 75 52 0.0 3.0 0.00 0.00 0.00 45 1015.5
20260831180553 74 46 0.0 2.0 0.00 0.00 0.00 48 1015.6
20260831180053 74 45 0.0 1.0 0.00 0.00 0.00 47 1015.6
20260831175556 75 46 0.0 1.0 0.00 0.00 0.00 47 1015.7
20260831175053 75 134 0.0 0.0 0.00 0.00 0.00 47 1015.7
20260831174606 75 134 0.0 1.0 0.00 0.00 0.00 48 1015.7
20260831174052 75 134 0.0 2.0 0.00 0.00 0.00 47 1015.7
20260831173552 75 136 0.0 2.0 0.00 0.00 0.00 47 1015.8
20260831172550 74 259 0.0 0.0 0.00 0.00 0.00 50 1015.8
20260831172048 73 259 0.0 0.0 0.00 0.00 0.00 51 1015.8
20260831171547 72 259 0.0 0.0 0.00 0.00 0.00 53 1015.8
20260831171046 71 259 0.0 0.0 0.00 0.00 0.00 54 1015.8
20260831170545 71 259 0.0 0.0 0.00 0.00 0.00 57 1015.7
20260831170042 70 259 0.0 0.0 0.00 0.00 0.00 55 1015.7
20260831165541 69 259 0.0 0.0 0.00 0.00 0.00 57 1015.6
20260831165040 69 259 0.0 0.0 0.00 0.00 0.00 60 1015.7
20260831164540 68 259 0.0 0.0 0.00 0.00 0.00 61 1015.6
20260831164040 68 259 0.0 0.0 0.00 0.00 0.00 62 1015.6
20260831163537 67 259 0.0 0.0 0.00 0.00 0.00 65 1015.7
20260831162536 66 278 0.0 1.0 0.00 0.00 0.00 66 1015.7
20260831162034 65 278 0.0 1.0 0.00 0.00 0.00 67 1015.7
20260831161533 65 279 0.0 4.0 0.00 0.00 0.00 68 1015.8
20260831161033 65 289 0.0 4.0 0.00 0.00 0.00 67 1015.8
20260831160532 65 200 0.0 5.0 0.00 0.00 0.00 67 1015.9
20260831160034 64 291 0.0 6.0 0.00 0.00 0.00 68 1016.0
20260831155532 64 278 0.0 4.0 0.00 0.00 0.00 68 1015.9
20260831155032 64 278 0.0 3.0 0.00 0.00 0.00 68 1016.0
20260831154534 64 288 0.0 3.0 0.00 0.00 0.00 68 1015.9
20260831154033 64 290 0.0 4.0 0.00 0.00 0.00 68 1015.8
20260831153533 64 290 0.0 4.0 0.00 0.00 0.00 66 1015.9
20260831152531 64 237 0.0 1.0 0.00 0.00 0.00 66 1015.8
20260831152032 64 234 0.0 0.0 0.00 0.00 0.00 65 1015.7
20260831151533 64 232 0.0 0.0 0.00 0.00 0.00 66 1015.8
20260831151030 64 187 0.0 0.0 0.00 0.00 0.00 65 1015.7
20260831150528 64 164 0.0 2.0 0.00 0.00 0.00 69 1015.7
20260831150028 64 164 0.0 2.0 0.00 0.00 0.00 68 1015.6
20260831145530 64 164 0.0 0.0 0.00 0.00 0.00 68 1015.6
20260831145027 64 164 0.0 0.0 0.00 0.00 0.00 66 1015.5
20260831144535 63 164 0.0 0.0 0.00 0.00 0.00 68 1015.5
20260831144026 63 164 0.0 0.0 0.00 0.00 0.00 67 1015.5
20260831143526 63 276 0.0 0.0 0.00 0.00 0.00 68 1015.5
20260831142528 62 276 0.0 0.0 0.00 0.00 0.00 71 1015.4
20260831142027 61 276 0.0 0.0 0.00 0.00 0.00 72 1015.4
20260831141527 61 276 0.0 0.0 0.00 0.00 0.00 72 1015.3
20260831141026 61 276 0.0 0.0 0.00 0.00 0.00 71 1015.3
20260831140525 60 276 0.0 0.0 0.00 0.00 0.00 71 1015.2
20260831140025 60 276 0.0 0.0 0.00 0.00 0.00 72 1015.2
20260831135525 60 276 0.0 0.0 0.00 0.00 0.00 73 1015.2
20260831135025 60 276 0.0 2.0 0.00 0.00 0.00 73 1015.2
20260831134525 60 276 0.0 2.0 0.00 0.00 0.00 73 1015.1
20260831134027 60 262 0.0 0.0 0.00 0.00 0.00 73 1015.1
20260831133523 60 262 0.0 0.0 0.00 0.00 0.00 72 1015.0
20260831132522 60 262 0.0 0.0 0.00 0.00 0.00 71 1014.9
20260831132022 60 262 0.0 0.0 0.00 0.00 0.00 71 1014.8
20260831131520 60 262 0.0 0.0 0.00 0.00 0.00 70 1014.8
20260831131021 60 261 0.0 0.0 0.00 0.00 0.00 69 1014.8
20260831130520 60 126 0.0 0.0 0.00 0.00 0.00 68 1014.7
20260831130022 61 240 0.0 0.0 0.00 0.00 0.00 67 1014.7
20260831125520 60 240 0.0 0.0 0.00 0.00 0.00 68 1014.7
20260831125020 60 228 0.0 0.0 0.00 0.00 0.00 69 1014.8
20260831124520 60 228 0.0 0.0 0.00 0.00 0.00 72 1014.7
20260831124019 60 228 0.0 0.0 0.00 0.00 0.00 74 1014.8
20260831123518 60 228 0.0 0.0 0.00 0.00 0.00 80 1014.8
20260831122518 60 228 0.0 0.0 0.00 0.00 0.00 76 1014.7
20260831122017 60 228 0.0 0.0 0.00 0.00 0.00 76 1014.8
20260831121531 60 228 0.0 0.0 0.00 0.00 0.00 74 1014.7
20260831121016 61 228 0.0 0.0 0.00 0.00 0.00 72 1014.7
20260831120518 61 228 0.0 0.0 0.00 0.00 0.00 72 1014.7